Regional Weather Roundup
Issued by NWS Cleveland, OH

Home | Current Version | Previous Version | Graphics & Text | Print | Product List | Glossary On
Versions: 1 2 3 4 5 6 7 8 9 10 11 12 13 14 15 16 17 18 19 20 21 22 23 24 25 26 27 28 29 30 31 32 33 34 35 36 37 38 39 40 41 42 43 44 45 46 47 48 49 50
000
ASUS41 KCLE 281610
RWRCLE
OHIO REGIONAL WEATHER ROUNDUP
NATIONAL WEATHER SERVICE WILMINGTON, OH
1200 PM EDT THU JUL 28 2016

NOTE: "FAIR" INDICATES FEW OR NO CLOUDS BELOW 12,000 FEET WITH NO
SIGNIFICANT WEATHER AND/OR OBSTRUCTIONS TO VISIBILITY.

OHZ001>008-015>018-024>027-034-035-043-044-281700-
   NORTHWEST OHIO

CITY           SKY/WX    TMP DP  RH WIND       PRES   REMARKS
DEFIANCE       FAIR      83  67  58 NE9       29.91S
FINDLAY        FAIR      85  62  46 VRB3      29.90R
TOLEDO EXPRESS FAIR      82  71  69 VRB6      29.90F
TOLEDO EXEC    FAIR      82  72  71 NE8       29.91S
LIMA           FAIR      81  68  64 CALM      29.91R
$$

OHZ009>014-019>023-028>033-038-089-281700-
   NORTHEAST OHIO

CITY           SKY/WX    TMP DP  RH WIND       PRES   REMARKS
CLE-HOPKINS    CLOUDY    83  62  49 N10       29.92S
CLE-LAKEFRONT  FAIR      80  67  64 N6        29.89F
CUY CO. ARPT   CLOUDY   N/A N/A N/A E7        29.91F
LORAIN-ELYRIA  FAIR      81  65  58 CALM      29.91S
ASHTABULA      FAIR      80  68  66 E5        29.92F
AKRON-CANTON   CLOUDY    78  66  66 SW6       29.93S
WOOSTER        FAIR      78  66  66 CALM      29.93S
MANSFIELD      FAIR      81  62  52 SE3       29.93S
YOUNGSTOWN     CLOUDY    81  70  69 E5        29.92F
$$

OHZ042-051>053-060>062-070>072-077>081-281700-
  SOUTHWEST OHIO

CITY           SKY/WX    TMP DP  RH WIND       PRES   REMARKS
CINC-COVINGTON CLOUDY    73  71  93 S3        29.93S
CINC-LUNKEN    FAIR      75  73  93 CALM      29.92F
HAMILTON       CLOUDY    77  71  82 W5        29.93S
DAYTON         PTSUNNY   76  70  82 SW8       29.94S
WRIGHT-PAT AFB PTSUNNY   77  73  88 SW6       29.92F
DAYTON GENERAL PTSUNNY   75  70  84 CALM      29.92S
WILMINGTON     LGT RAIN  73  70  90 W5        29.94R
$$

OHZ036-037-039>041-045>050-054>059-063>069-073>076-082>088-281700-
  CENTRAL AND SOUTHEAST OHIO

CITY           SKY/WX    TMP DP  RH WIND       PRES   REMARKS
COLUMBUS       CLOUDY    77  70  79 VRB3      29.91R
OSU AIRPORT    PTSUNNY   79  70  74 W10       29.92R
BOLTON FIELD     N/A     75  72  88 MISG        N/A
RICKENBACK AFB PTSUNNY   76  72  86 SW6       29.92R
NEWARK         FAIR      78  71  79 S3        29.91S
MARION         FAIR      81  67  62 W3        29.91F
LANCASTER      LGT RAIN  76  73  91 S5        29.93R
ZANESVILLE     LGT RAIN  75  72  90 S12       29.93S FOG
NEW PHILLY     CLOUDY    73  69  87 S3        29.94F
$$



USA.gov is the U.S. government's official web portal to all federal, state and local government web resources and services.